Ottumwa, IA

9:52 AM CST on November 21, 2017 (GMT -0600)
Ottumwa Industrial

Weather History for KOTM - March, 2014

Change the Weather History Date:

Saturday, March 22, 2014

  Actual Average Record
Temperature  
Mean Temperature 31 °F 41 °F  
Max Temperature 38 °F 52 °F 85 °F (1910)
Min Temperature 23 °F 31 °F 4 °F (1913)
Degree Days  
Heating Degree Days 34 24  
Month to date heating degree days 734 617  
Since 1 July heating degree days 6246 5502  
Cooling Degree Days 0 0  
Month to date cooling degree days 0 0  
Year to date cooling degree days 0 0  
Moisture  
Dew Point 16 °F    
Average Humidity 55    
Maximum Humidity 78    
Minimum Humidity 32    
Precipitation  
Precipitation 0.00 in 0.07 in 0.65 in (1953)
Month to date precipitation 0.07 1.53  
Year to date precipitation 1.40 3.71  
Sea Level Pressure  
Sea Level Pressure 30.30 in    
Wind  
Wind Speed 18 mph (NNW)    
Max Wind Speed 24 mph    
Max Gust Speed 31 mph    
Visibility 10 miles    
Events      
T = Trace of Precipitation, MM = Missing Value Source: NWS Daily Summary

Daily Weather History Graph

Daily Weather History Graph

Search for Another Location

Airport or City:

Trip Planner

Search our weather history database for the weather conditions in past years. The results will help you decide how hot, cold, wet, or windy it might be!

Date:

Astronomy

Mar. 22, 2014 Rise Set
Actual Time 7:09 AM CDT 7:24 PM CDT
Civil Twilight 6:42 AM CDT 7:51 PM CDT
Nautical Twilight 6:10 AM CDT 8:23 PM CDT
Astronomical Twilight 5:37 AM CDT 8:56 PM CDT
Moon 12:46 AM CDT (3/22) 10:51 AM CDT (3/22)
Length of Visible Light 13h 09m
Length of Day
12h 14m
Waning Gibbous, 65% of the Moon is Illuminated
Mar 22
Waning Gibbous
Mar 23
Last Quarter
Mar 30
New
Apr 7
First Quarter
Apr 15
Full

Hourly Weather History & Observations

Time (CDT) Temp. Windchill Dew Point Humidity Pressure Visibility Wind Dir Wind Speed Gust Speed Precip Events Conditions
12:53 AM 33.1 °F 22.2 °F 25.0 °F 72% 30.13 in 10.0 mi NNW 17.3 mph - N/A   Overcast
1:53 AM 30.9 °F 19.1 °F 24.1 °F 76% 30.15 in 10.0 mi NNW 18.4 mph - N/A   Mostly Cloudy
2:00 AM 30.9 °F 19.1 °F 24.1 °F 76% 30.14 in 10.0 mi NNW 18.4 mph - N/A   Partly Cloudy
2:53 AM 28.9 °F 17.7 °F 23.0 °F 78% 30.17 in 10.0 mi NW 15.0 mph - N/A   Clear
3:17 AM 28.9 °F 18.6 °F 23.0 °F 78% 30.16 in 10.0 mi NW 12.7 mph 23.0 mph N/A   Mostly Cloudy
3:53 AM 28.9 °F 16.5 °F 21.9 °F 75% 30.18 in 10.0 mi NNW 18.4 mph - N/A   Overcast
4:53 AM 28.0 °F 15.3 °F 19.9 °F 72% 30.21 in 10.0 mi NNW 18.4 mph 26.5 mph N/A   Overcast
5:53 AM 25.0 °F 10.9 °F 18.0 °F 75% 30.23 in 10.0 mi NNW 19.6 mph - N/A   Mostly Cloudy
6:05 AM 25.0 °F 11.3 °F 17.1 °F 72% 30.22 in 10.0 mi NNW 18.4 mph - N/A   Scattered Clouds
6:53 AM 24.1 °F 10.6 °F 17.1 °F 75% 30.25 in 10.0 mi NNW 17.3 mph - N/A   Clear
7:53 AM 23.0 °F 8.0 °F 16.0 °F 74% 30.28 in 10.0 mi NNW 20.7 mph - N/A   Partly Cloudy
8:15 AM 24.1 °F 9.8 °F 16.0 °F 71% 30.28 in 10.0 mi NNW 19.6 mph - N/A   Mostly Cloudy
8:53 AM 24.1 °F 9.8 °F 15.1 °F 69% 30.32 in 10.0 mi NNW 19.6 mph - N/A   Overcast
9:23 AM 25.0 °F 11.3 °F 16.0 °F 69% 30.31 in 10.0 mi NNW 18.4 mph - N/A   Partly Cloudy
9:53 AM 26.1 °F 12.3 °F 15.1 °F 63% 30.35 in 10.0 mi NNW 19.6 mph - N/A   Partly Cloudy
10:53 AM 28.9 °F 17.7 °F 16.0 °F 58% 30.36 in 10.0 mi NNW 15.0 mph 23.0 mph N/A   Clear
11:53 AM 30.9 °F 20.2 °F 15.1 °F 52% 30.36 in 10.0 mi North 15.0 mph - N/A   Clear
12:53 PM 35.1 °F 24.5 °F 16.0 °F 46% 30.36 in 10.0 mi NNW 18.4 mph 24.2 mph N/A   Clear
1:53 PM 37.0 °F 28.1 °F 14.0 °F 39% 30.35 in 10.0 mi North 15.0 mph - N/A   Clear
2:53 PM 37.0 °F 27.0 °F 14.0 °F 39% 30.34 in 10.0 mi NNW 18.4 mph 25.3 mph N/A   Clear
3:53 PM 37.0 °F 26.4 °F 10.0 °F 33% 30.35 in 10.0 mi North 20.7 mph 27.6 mph N/A   Clear
4:53 PM 35.1 °F 23.8 °F 10.9 °F 37% 30.36 in 10.0 mi North 20.7 mph - N/A   Scattered Clouds
5:53 PM 32.0 °F 19.5 °F 12.0 °F 44% 30.36 in 10.0 mi North 21.9 mph 26.5 mph N/A   Mostly Cloudy
6:53 PM 30.0 °F 17.2 °F 12.9 °F 49% 30.38 in 10.0 mi NNW 20.7 mph - N/A   Mostly Cloudy
7:53 PM 28.0 °F 15.7 °F 12.0 °F 51% 30.40 in 10.0 mi North 17.3 mph - N/A   Overcast
8:53 PM 27.0 °F 13.2 °F 12.9 °F 56% 30.43 in 10.0 mi NNW 20.7 mph - N/A   Mostly Cloudy
9:53 PM 26.1 °F 12.3 °F 12.0 °F 55% 30.44 in 10.0 mi North 19.6 mph - N/A   Overcast
10:53 PM 25.0 °F 12.2 °F 12.9 °F 60% 30.46 in 10.0 mi North 16.1 mph - N/A   Overcast
11:53 PM 25.0 °F 11.7 °F 12.9 °F 60% 30.48 in 10.0 mi North 17.3 mph - N/A   Overcast